TimeEST,TemperatureF,Dew PointF,Humidity,Sea Level PressureIn,VisibilityMPH,Wind Direction,Wind SpeedMPH,Gust SpeedMPH,PrecipitationIn,Events,Conditions,WindDirDegrees,DateUTC
12:53 AM,35.1,30.0,82,30.16,5.0,Calm,Calm,-,N/A,,Haze,0,2012-11-09 05:53:00
1:53 AM,32.0,28.0,85,30.17,4.0,South,3.5,-,N/A,,Clear,170,2012-11-09 06:53:00
2:53 AM,34.0,30.0,85,30.17,4.0,SSE,3.5,-,N/A,,Clear,160,2012-11-09 07:53:00
3:53 AM,33.1,30.0,89,30.18,4.0,Calm,Calm,-,N/A,,Clear,0,2012-11-09 08:53:00
4:53 AM,33.1,28.9,85,30.18,3.0,SSE,5.8,-,N/A,,Clear,150,2012-11-09 09:53:00
5:53 AM,33.1,30.0,89,30.17,3.0,SE,4.6,-,N/A,,Clear,140,2012-11-09 10:53:00
6:46 AM,33.8,30.2,87,30.16,2.5,ESE,4.6,-,N/A,,Clear,120,2012-11-09 11:46:00
6:53 AM,33.1,30.9,92,30.18,2.5,ESE,5.8,-,N/A,,Clear,120,2012-11-09 11:53:00
7:32 AM,32.0,30.2,93,30.15,1.5,SE,5.8,-,N/A,,Clear,140,2012-11-09 12:32:00
7:53 AM,34.0,30.9,89,30.18,1.5,SSE,5.8,-,N/A,,Clear,150,2012-11-09 12:53:00
8:37 AM,37.4,33.8,87,30.16,2.0,SE,6.9,-,N/A,,Clear,140,2012-11-09 13:37:00
8:53 AM,39.0,35.1,86,30.18,2.5,SSE,5.8,-,N/A,,Clear,150,2012-11-09 13:53:00
9:28 AM,42.8,35.6,76,30.16,3.0,SSE,6.9,-,N/A,,Haze,160,2012-11-09 14:28:00
9:53 AM,45.0,37.0,74,30.17,4.0,SSE,8.1,-,N/A,,Haze,160,2012-11-09 14:53:00
10:53 AM,50.0,37.9,63,30.15,7.0,South,11.5,-,N/A,,Clear,180,2012-11-09 15:53:00
11:53 AM,53.1,37.9,57,30.14,8.0,South,11.5,-,N/A,,Clear,190,2012-11-09 16:53:00
12:53 PM,57.0,39.0,51,30.10,10.0,SSE,15.0,-,N/A,,Clear,160,2012-11-09 17:53:00
1:53 PM,59.0,39.0,48,30.07,10.0,South,11.5,-,N/A,,Clear,170,2012-11-09 18:53:00
2:53 PM,59.0,39.0,48,30.07,10.0,South,12.7,-,N/A,,Overcast,170,2012-11-09 19:53:00
3:53 PM,59.0,39.9,49,30.06,10.0,South,11.5,-,N/A,,Overcast,170,2012-11-09 20:53:00
4:53 PM,57.9,39.9,51,30.05,10.0,South,10.4,-,N/A,,Overcast,180,2012-11-09 21:53:00
5:53 PM,57.0,39.9,53,30.05,10.0,SSE,9.2,-,N/A,,Overcast,160,2012-11-09 22:53:00
6:53 PM,55.9,39.9,55,30.04,10.0,SSE,9.2,-,N/A,,Overcast,160,2012-11-09 23:53:00
7:40 PM,53.6,44.6,72,30.04,10.0,South,8.1,-,0.01,Rain-Thunderstorm,Light Rain,170,2012-11-10 00:40:00
7:53 PM,53.1,45.0,74,30.06,10.0,SSE,3.5,-,0.02,Rain-Thunderstorm,Light Thunderstorms and Rain,150,2012-11-10 00:53:00
8:06 PM,51.8,44.6,76,30.04,10.0,East,3.5,-,0.00,,Overcast,100,2012-11-10 01:06:00
8:53 PM,51.1,46.0,83,30.06,10.0,ESE,3.5,-,0.00,,Overcast,110,2012-11-10 01:53:00
9:53 PM,53.1,44.1,71,30.06,10.0,SSE,5.8,-,N/A,,Overcast,150,2012-11-10 02:53:00
10:53 PM,54.0,42.1,64,30.06,10.0,South,8.1,-,N/A,,Overcast,170,2012-11-10 03:53:00